User: anonymous   Login
Location: Unspecified
(0.0000°N, 0.0000°E)
Time: 05:44:15
(UTC+00:00)
Language:

LightSail 2 - Orbit

View from above orbital plane
View from above orbital plane
View from above satellite
View from above satellite

Ground track
Ground track

The orbit data is extracted from the following two-line orbital elements,

1 44420U 19036AC  20193.72474992 +.00002157 +00000-0 +43288-3 0  9995
2 44420 024.0062 314.4233 0020811 027.2308 332.9272 14.55863402053862
Epoch (UTC): 11 July 2020 17:23:38
Eccentricity: 0.0020811
inclination: 24.0062°
perigee height: 692 km
apogee height: 721 km
right ascension of ascending node: 314.4233°
argument of perigee: 27.2308°
revolutions per day: 14.55863402
mean anomaly at epoch: 332.9272°
orbit number at epoch: 5386

The dashed part of the orbit path shows where the satellite is in the earth's shadow,  

DLR